• en France
  • Liste des pays
  • À 7 jours
  • Température de l'eau
  • Carte satellitaire
  • Carte météo
  • Widgets météo
  • user-avatar
    Se connecter

    Météo par heure à Makurdi

    Ce jour, 24 Septembre, Lundi

    Heure Température Précipitation Vent Pression Humidité
    00:00 +25°C° 0.2 mm 1 m/s 749 mmHg 91%
    01:00 +25°C° 0 mm 1 m/s 749 mmHg 91%
    02:00 +25°C° 0.2 mm 1 m/s 749 mmHg 91%
    03:00 +25°C° 0.2 mm 1 m/s 749 mmHg 91%
    04:00 +25°C° 0.2 mm 1 m/s 748 mmHg 91%
    05:00 +25°C° 0.1 mm 1 m/s 748 mmHg 91%
    06:00 +25°C° 0.1 mm 1 m/s 749 mmHg 92%
    07:00 +25°C° 0 mm 1 m/s 749 mmHg 92%
    08:00 +26°C° 0 mm 1 m/s 749 mmHg 88%
    09:00 +27°C° 0 mm 1 m/s 749 mmHg 84%
    10:00 +28°C° 0 mm 1 m/s 749 mmHg 79%
    11:00 +30°C° 0 mm 1 m/s 749 mmHg 74%
    12:00 +31°C° 0 mm 1 m/s 749 mmHg 68%
    13:00 +33°C° 0 mm 1 m/s 748 mmHg 62%
    14:00 +33°C° 0 mm 1 m/s 747 mmHg 63%
    15:00 +33°C° 0 mm 1 m/s 747 mmHg 63%
    16:00 +33°C° 0 mm 1 m/s 746 mmHg 64%
    17:00 +31°C° 0 mm 1 m/s 747 mmHg 68%
    18:00 +30°C° 0 mm 1 m/s 747 mmHg 73%
    19:00 +29°C° 0 mm 1 m/s 747 mmHg 78%
    20:00 +28°C° 0.8 mm 2 m/s 748 mmHg 82%
    21:00 +27°C° 0.8 mm 2 m/s 748 mmHg 86%
    22:00 +27°C° 0.8 mm 2 m/s 749 mmHg 90%
    23:00 +26°C° 0.4 mm 2 m/s 749 mmHg 91%

    Demain, 25 Septembre, Mardi

    Heure Température Précipitation Vent Pression Humidité
    00:00 +26°C° 0.4 mm 2 m/s 749 mmHg 92%
    01:00 +26°C° 0.4 mm 2 m/s 749 mmHg 93%
    02:00 +26°C° 0.5 mm 2 m/s 749 mmHg 94%
    03:00 +26°C° 0.5 mm 2 m/s 748 mmHg 95%
    04:00 +25°C° 0.5 mm 2 m/s 748 mmHg 96%
    05:00 +25°C° 0.5 mm 2 m/s 748 mmHg 96%
    06:00 +25°C° 0.5 mm 2 m/s 748 mmHg 96%
    07:00 +25°C° 0.5 mm 2 m/s 749 mmHg 96%
    08:00 +26°C° 0.1 mm 2 m/s 749 mmHg 92%
    09:00 +27°C° 0.1 mm 2 m/s 750 mmHg 88%
    10:00 +28°C° 0.1 mm 2 m/s 750 mmHg 84%
    11:00 +29°C° 0 mm 2 m/s 750 mmHg 80%
    12:00 +30°C° 0 mm 2 m/s 749 mmHg 76%
    13:00 +31°C° 0 mm 2 m/s 748 mmHg 72%
    14:00 +31°C° 0 mm 2 m/s 748 mmHg 72%
    15:00 +31°C° 0 mm 2 m/s 747 mmHg 72%
    16:00 +31°C° 0 mm 2 m/s 746 mmHg 72%
    17:00 +30°C° 0 mm 1 m/s 747 mmHg 76%
    18:00 +29°C° 0 mm 1 m/s 747 mmHg 80%
    19:00 +28°C° 0 mm 1 m/s 747 mmHg 85%
    20:00 +27°C° 0 mm 1 m/s 748 mmHg 86%
    21:00 +27°C° 0 mm 1 m/s 748 mmHg 87%
    22:00 +27°C° 0 mm 1 m/s 749 mmHg 88%
    23:00 +26°C° 0 mm 1 m/s 749 mmHg 89%

    Après-demain, 26 Septembre, Mercredi

    Heure Température Précipitation Vent Pression Humidité
    00:00 +26°C° 0 mm 1 m/s 749 mmHg 90%
    01:00 +26°C° 0 mm 1 m/s 749 mmHg 90%
    02:00 +26°C° 0 mm 1 m/s 749 mmHg 91%
    03:00 +25°C° 0 mm 1 m/s 748 mmHg 93%
    04:00 +25°C° 0 mm 2 m/s 748 mmHg 94%
    05:00 +25°C° 0 mm 1 m/s 748 mmHg 94%
    06:00 +25°C° 0 mm 1 m/s 749 mmHg 94%
    07:00 +25°C° 0 mm 1 m/s 749 mmHg 95%
    08:00 +27°C° 0 mm 2 m/s 749 mmHg 88%
    09:00 +29°C° 0 mm 2 m/s 750 mmHg 81%
    10:00 +30°C° 0 mm 2 m/s 750 mmHg 74%
    11:00 +31°C° 0 mm 2 m/s 749 mmHg 70%
    12:00 +32°C° 0 mm 2 m/s 748 mmHg 67%
    13:00 +34°C° 0 mm 2 m/s 748 mmHg 64%
    14:00 +34°C° 0 mm 2 m/s 747 mmHg 65%
    15:00 +33°C° 0 mm 1 m/s 746 mmHg 65%
    16:00 +33°C° 0 mm 1 m/s 746 mmHg 66%
    17:00 +32°C° 0 mm 1 m/s 746 mmHg 70%
    18:00 +30°C° 0 mm 1 m/s 747 mmHg 74%
    19:00 +29°C° 0 mm 1 m/s 747 mmHg 77%
    20:00 +28°C° 1.3 mm 2 m/s 748 mmHg 82%
    21:00 +28°C° 1.3 mm 2 m/s 748 mmHg 87%
    22:00 +27°C° 1.3 mm 3 m/s 749 mmHg 91%
    23:00 +26°C° 0.7 mm 3 m/s 749 mmHg 92%

    27 Septembre, Jeudi

    Heure Température Précipitation Vent Pression Humidité
    00:00 +26°C° 0.7 mm 2 m/s 749 mmHg 93%
    01:00 +26°C° 0.7 mm 2 m/s 748 mmHg 94%
    02:00 +26°C° 0 mm 2 m/s 748 mmHg 95%
    03:00 +25°C° 0 mm 2 m/s 748 mmHg 95%
    04:00 +25°C° 0 mm 1 m/s 748 mmHg 96%
    05:00 +25°C° 0.6 mm 1 m/s 748 mmHg 96%
    06:00 +25°C° 0.6 mm 1 m/s 749 mmHg 96%
    07:00 +25°C° 0.6 mm 1 m/s 749 mmHg 95%
    08:00 +26°C° 0.4 mm 1 m/s 750 mmHg 93%
    09:00 +27°C° 0.4 mm 2 m/s 750 mmHg 91%
    10:00 +28°C° 0.4 mm 3 m/s 750 mmHg 88%
    11:00 +29°C° 0 mm 3 m/s 749 mmHg 84%
    12:00 +29°C° 0 mm 3 m/s 748 mmHg 80%
    13:00 +30°C° 0 mm 3 m/s 747 mmHg 76%
    14:00 +31°C° 0 mm 2 m/s 747 mmHg 74%
    15:00 +31°C° 0 mm 2 m/s 746 mmHg 73%
    16:00 +31°C° 0 mm 2 m/s 746 mmHg 71%
    17:00 +30°C° 0 mm 2 m/s 746 mmHg 76%
    18:00 +29°C° 0 mm 2 m/s 747 mmHg 80%
    19:00 +28°C° 0 mm 1 m/s 747 mmHg 85%
    20:00 +28°C° 0.1 mm 2 m/s 748 mmHg 86%
    21:00 +27°C° 0.1 mm 2 m/s 748 mmHg 88%
    22:00 +27°C° 0.1 mm 2 m/s 749 mmHg 89%
    23:00 +26°C° 0.1 mm 2 m/s 749 mmHg 89%

    28 Septembre, Vendredi

    Heure Température Précipitation Vent Pression Humidité
    00:00 +26°C° 0.1 mm 2 m/s 748 mmHg 90%
    01:00 +26°C° 0.1 mm 2 m/s 748 mmHg 90%
    02:00 +25°C° 0.2 mm 2 m/s 748 mmHg 92%
    03:00 +25°C° 0.2 mm 1 m/s 748 mmHg 94%
    04:00 +24°C° 0.2 mm 1 m/s 748 mmHg 96%
    05:00 +25°C° 0 mm 1 m/s 748 mmHg 95%
    06:00 +25°C° 0 mm 1 m/s 749 mmHg 95%
    07:00 +25°C° 0 mm 1 m/s 749 mmHg 94%
    08:00 +26°C° 0 mm 1 m/s 750 mmHg 88%
    09:00 +28°C° 0 mm 2 m/s 750 mmHg 82%
    10:00 +29°C° 0 mm 2 m/s 750 mmHg 76%
    11:00 +30°C° 0.1 mm 2 m/s 750 mmHg 76%
    12:00 +30°C° 0.1 mm 2 m/s 749 mmHg 76%
    13:00 +30°C° 0.1 mm 2 m/s 748 mmHg 76%
    14:00 +30°C° 0.3 mm 2 m/s 748 mmHg 76%
    15:00 +30°C° 0.3 mm 2 m/s 747 mmHg 77%
    16:00 +30°C° 0.3 mm 2 m/s 747 mmHg 78%
    17:00 +29°C° 0 mm 1 m/s 747 mmHg 82%
    18:00 +28°C° 0 mm 1 m/s 748 mmHg 86%
    19:00 +27°C° 0 mm 1 m/s 748 mmHg 90%
    20:00 +27°C° 0 mm 1 m/s 748 mmHg 90%
    21:00 +26°C° 0 mm 1 m/s 749 mmHg 90%
    22:00 +26°C° 0 mm 1 m/s 749 mmHg 90%
    23:00 +26°C° 0 mm 1 m/s 749 mmHg 89%

    29 Septembre, Samedi

    Heure Température Précipitation Vent Pression Humidité
    00:00 +26°C° 0 mm 1 m/s 749 mmHg 89%
    01:00 +25°C° 0 mm 1 m/s 748 mmHg 88%
    02:00 +25°C° 0 mm 1 m/s 748 mmHg 88%
    03:00 +25°C° 0 mm 1 m/s 748 mmHg 88%
    04:00 +25°C° 0 mm 1 m/s 748 mmHg 88%
    05:00 +25°C° 0 mm 1 m/s 748 mmHg 89%
    06:00 +25°C° 0 mm 1 m/s 749 mmHg 89%
    07:00 +25°C° 0 mm 1 m/s 749 mmHg 90%
    08:00 +26°C° 0 mm 1 m/s 750 mmHg 89%
    09:00 +27°C° 0 mm 1 m/s 750 mmHg 87%
    10:00 +27°C° 0 mm 1 m/s 750 mmHg 85%
    11:00 +28°C° 0 mm 1 m/s 749 mmHg 80%
    12:00 +30°C° 0 mm 1 m/s 748 mmHg 76%
    13:00 +31°C° 0 mm 1 m/s 747 mmHg 71%
    14:00 +31°C° 0 mm 1 m/s 747 mmHg 69%
    15:00 +32°C° 0 mm 1 m/s 746 mmHg 67%
    16:00 +32°C° 0 mm 1 m/s 746 mmHg 64%
    17:00 +31°C° 0 mm 1 m/s 746 mmHg 69%
    18:00 +29°C° 0 mm 1 m/s 747 mmHg 74%
    19:00 +28°C° 0 mm 1 m/s 747 mmHg 80%
    20:00 +28°C° 0 mm 1 m/s 747 mmHg 80%
    21:00 +27°C° 0 mm 1 m/s 748 mmHg 80%
    22:00 +27°C° 0 mm 1 m/s 748 mmHg 81%
    23:00 +27°C° 0.1 mm 1 m/s 748 mmHg 82%
    Voir plus